Location: St. Louis
(38.6270°N, 90.1994°W)
Time: 08:41:29
(UTC-06:00)

Vanguard 2 Rocket - Pass Details

Date: 06 December 2021
Orbit: 553 x 3325 km, 32.9° (Epoch: 22 January)

Event Time Altitude Azimuth Distance (km) Brightness Sun altitude
Rises 18:10:27 0° 251° (WSW) 3,109 11.4 -17.3°
Reaches altitude 10° 18:12:27 10° 246° (WSW) 2,368 10.3 -17.7°
Maximum altitude 18:17:49 54° 170° (S) 1,307 7.6 -18.7°
Enters shadow 18:23:02 24° 104° (ESE) 2,623 8.7 -19.7°
Drops below altitude 10° 18:27:02 10° 96° (E) 3,989 - -20.4°
Sets 18:31:24 0° 93° (E) 5,460 - -21.3°
